EW3060 Weather Reports


Display with metric or nautical units.
time (UTC)temp
F
wind
direction
speed
MPH
gust
MPH
rain 1hr
in
rain 24hr
in
rain mn
in
humidity
%
barometer
mb
20260502161529 74 139 0.0 0.0 0.00 0.00 0.00 21 1006.8
20260502151514 66 210 0.0 0.0 0.00 0.00 0.00 30 1006.7
20260502140104 58 222 0.0 0.0 0.00 0.00 0.00 42 1006.4
20260502123053 57 222 0.0 0.0 0.00 0.00 0.00 51 1005.8
20260502121553 56 222 0.0 0.0 0.00 0.00 0.00 54 1005.8
20260502114551 56 222 0.0 0.0 0.00 0.00 0.00 56 1005.8
20260502113048 58 222 0.0 0.0 0.00 0.00 0.00 51 1005.7
20260502111600 59 222 0.0 0.0 0.00 0.00 0.00 50 1005.8
20260502110048 58 222 0.0 0.0 0.00 0.00 0.00 52 1005.8
20260502104546 57 224 0.0 0.0 0.00 0.00 0.00 57 1005.7
20260502103100 56 224 0.0 1.0 0.00 0.00 0.00 60 1005.7
20260502101542 57 213 0.0 2.0 0.00 0.00 0.00 62 1005.8
20260502091533 58 194 0.0 1.0 0.00 0.00 0.00 62 1005.9
20260502071515 61 248 0.0 0.0 0.00 0.00 0.00 62 1006.5
20260502070019 61 359 0.0 0.0 0.00 0.00 0.00 63 1006.5
20260502064513 62 359 0.0 0.0 0.00 0.00 0.00 58 1006.4
20260502063016 63 359 0.0 0.0 0.00 0.00 0.00 57 1006.3
20260502061510 63 359 0.0 0.0 0.00 0.00 0.00 50 1006.2
20260502060012 63 197 0.0 0.0 0.00 0.00 0.00 46 1006.1
20260502054515 65 224 0.0 1.0 0.00 0.00 0.00 39 1005.9
20260502053008 65 218 0.0 1.0 0.00 0.00 0.00 42 1006.0
20260502051508 65 359 0.0 0.0 0.00 0.00 0.00 43 1005.9
20260502050009 64 184 0.0 1.0 0.00 0.00 0.00 49 1006.0
20260502044507 66 359 0.0 2.0 0.00 0.00 0.00 48 1005.7
20260502043008 66 359 0.0 2.0 0.00 0.00 0.00 52 1005.6
20260502041507 66 243 0.0 2.0 0.00 0.00 0.00 47 1005.4
20260502040009 67 243 0.0 0.0 0.00 0.00 0.00 46 1005.1
20260502034506 67 216 0.0 1.0 0.00 0.00 0.00 41 1004.8
20260502033005 69 209 0.0 0.0 0.00 0.00 0.00 36 1004.4
20260502031504 70 220 0.0 1.0 0.00 0.00 0.00 33 1004.3
20260502030005 70 212 0.0 1.0 0.00 0.00 0.00 33 1004.1
20260502024504 71 207 0.0 2.0 0.00 0.00 0.00 34 1004.0
20260502023003 72 189 0.0 2.0 0.00 0.00 0.00 32 1004.0
20260502021503 73 195 0.0 4.0 0.00 0.00 0.00 31 1003.8
20260502020100 74 219 1.0 5.0 0.00 0.00 0.00 29 1003.7
20260502014557 75 185 0.0 5.0 0.00 0.00 0.00 28 1003.7
20260502013057 76 217 1.0 2.0 0.00 0.00 0.00 25 1003.7
20260502011602 77 223 1.0 3.0 0.00 0.00 0.00 23 1003.5
20260502010055 78 190 0.0 4.0 0.00 0.00 0.00 23 1003.6
20260502004606 78 209 0.0 3.0 0.00 0.00 0.00 25 1003.6
20260502003051 79 199 1.0 4.0 0.00 0.00 0.00 22 1003.6
20260502001553 79 192 0.0 3.0 0.00 0.00 0.00 22 1003.5
20260502000059 79 208 1.0 4.0 0.00 0.00 0.00 21 1003.6
20260501234549 80 186 0.0 3.0 0.00 0.00 0.00 22 1003.7
20260501233048 81 265 0.0 4.0 0.00 0.00 0.00 15 1003.6
20260501231546 82 57 0.0 1.0 0.00 0.00 0.00 14 1003.7
20260501230045 82 29 0.0 2.0 0.00 0.00 0.00 15 1003.9
20260501224542 81 67 0.0 2.0 0.00 0.00 0.00 15 1004.0
20260501223040 83 37 0.0 3.0 0.00 0.00 0.00 15 1004.1
20260501221537 81 229 0.0 3.0 0.00 0.00 0.00 16 1004.4
20260501220035 82 54 0.0 5.0 0.00 0.00 0.00 15 1004.7
20260501214532 81 320 0.0 1.0 0.00 0.00 0.00 16 1004.9
20260501213030 82 14 0.0 1.0 0.00 0.00 0.00 16 1004.9
20260501211529 81 90 0.0 1.0 0.00 0.00 0.00 16 1005.1
20260501210027 80 39 0.0 1.0 0.00 0.00 0.00 16 1005.4
20260501204525 81 263 0.0 2.0 0.00 0.00 0.00 16 1005.5
20260501203022 79 130 0.0 2.0 0.00 0.00 0.00 17 1005.4
20260501201520 81 39 0.0 0.0 0.00 0.00 0.00 16 1005.5
20260501200015 80 285 0.0 2.0 0.00 0.00 0.00 17 1005.7
20260501194516 79 297 0.0 1.0 0.00 0.00 0.00 19 1005.9
20260501193021 79 54 0.0 3.0 0.00 0.00 0.00 18 1006.0
20260501191517 78 206 0.0 0.0 0.00 0.00 0.00 19 1006.2
20260501190008 78 354 0.0 1.0 0.00 0.00 0.00 20 1006.5
20260501184506 78 68 0.0 1.0 0.00 0.00 0.00 21 1006.7
20260501183003 78 8 0.0 0.0 0.00 0.00 0.00 20 1006.8
20260501181501 77 346 0.0 0.0 0.00 0.00 0.00 24 1006.9
20260501180101 77 12 0.0 0.0 0.00 0.00 0.00 24 1007.1
20260501174646 75 10 0.0 0.0 0.00 0.00 0.00 26 1007.2
20260501173103 75 16 0.0 0.0 0.00 0.00 0.00 25 1007.1
20260501171554 73 153 0.0 0.0 0.00 0.00 0.00 29 1007.2
20260501170101 72 207 0.0 0.0 0.00 0.00 0.00 29 1007.3
20260501164604 71 293 0.0 0.0 0.00 0.00 0.00 30 1007.6
20260501163100 71 67 0.0 0.0 0.00 0.00 0.00 32 1007.5